Location: Hawaiian Village Mobile Home Park
(32.8359°N, 116.9792°W)
Time: 17:37:06
(UTC+00:00)

USA 215 - Pass Details

Date: 01 August 2021
Orbit: 1100 x 1107 km, 123.0° (Epoch: 21 September)

Event Time Altitude Azimuth Distance (km) Brightness Sun altitude
Rises 12:17:07 0° 39° (NE) 3,921 7.6 -9.4°
Reaches altitude 10° 12:19:37 10° 37° (NE) 2,960 6.7 -8.9°
Maximum altitude 12:26:05 69° 316° (NW) 1,172 3.4 -7.7°
Drops below altitude 10° 12:32:32 10° 234° (SW) 2,948 4.9 -6.5°
Enters shadow 12:33:19 - 234° (SW) 3,246 5.1 -6.3°
